User: anonymous   Login
Location: Paralde Spring
(38.5794°N, 119.0140°W)
Time: 13:33:49
(UTC+00:00)
Language:

Cosmos 1500 - Orbit

View from above orbital plane
View from above orbital plane
View from above satellite
View from above satellite

Ground track
Ground track

The orbit data is extracted from the following two-line orbital elements,

1 14372U 83099A   21135.75653567  .00000776  00000-0  35104-4 0  9999
2 14372  82.5164   9.9364 0015574 148.3416 211.8759 15.19290676 54238
Epoch (UTC): 15 May 2021 18:09:24
Eccentricity: 0.0015574
inclination: 82.5164°
perigee height: 497 km
apogee height: 519 km
right ascension of ascending node: 9.9364°
argument of perigee: 148.3416°
revolutions per day: 15.19290676
mean anomaly at epoch: 211.8759°
orbit number at epoch: 5423

The dashed part of the orbit path shows where the satellite is in the earth's shadow,  

DLR